Port Lavaca, TX

2:29 AM CDT on April 28, 2017 (GMT -0500)
Port Lavaca

Weather History for KPKV - January, 2014

Change the Weather History Date:

Friday, January 10, 2014

  Actual Average (KVCT) Record (KVCT)
Temperature  
Mean Temperature 65 °F -  
Max Temperature 71 °F 61 °F 83 °F (1963)
Min Temperature 58 °F 41 °F 18 °F (1962)
Growing Degree Days 15 (Base 50)    
Moisture  
Dew Point 63 °F    
Average Humidity 92    
Maximum Humidity 98    
Minimum Humidity 83    
Precipitation  
Precipitation 0.00 in - - ()
Sea Level Pressure  
Sea Level Pressure 29.90 in    
Wind  
Wind Speed 8 mph (South)    
Max Wind Speed 17 mph    
Max Gust Speed 22 mph    
Visibility 7 miles    
Events Fog , Rain    
Averages and records for this station are not official NWS values.
T = Trace of Precipitation, MM = Missing Value Source: NWS Daily Summary

Daily Weather History Graph

Daily Weather History Graph

Search for Another Location

Airport or City:

Trip Planner

Search our weather history database for the weather conditions in past years. The results will help you decide how hot, cold, wet, or windy it might be!

Date:

Astronomy

Jan. 10, 2014 Rise Set
Actual Time 7:20 AM CST 5:48 PM CST
Civil Twilight 6:55 AM CST 6:13 PM CST
Nautical Twilight 6:26 AM CST 6:42 PM CST
Astronomical Twilight 5:57 AM CST 7:11 PM CST
Moon 1:46 PM CST (1/10) 2:37 AM CST (1/10)
Length of Visible Light 11h 18m
Length of Day
10h 27m
Waxing Gibbous, 75% of the Moon is Illuminated
Jan 10
Waxing Gibbous
Jan 15
Full
Jan 23
Last Quarter
Jan 30
New
Feb 6
First Quarter

Hourly Weather History & Observations

Time (CST) Temp. Dew Point Humidity Pressure Visibility Wind Dir Wind Speed Gust Speed Precip Events Conditions
12:15 AM 62.6 °F 60.8 °F 94% 30.03 in 7.0 mi SSE 4.6 mph - N/A   Overcast
12:35 AM 62.8 °F 61.2 °F 94% 30.03 in 10.0 mi SE 4.6 mph - N/A   Overcast
12:55 AM 62.6 °F 61.0 °F 94% 30.02 in 7.0 mi SE 4.6 mph - N/A   Overcast
1:15 AM 62.6 °F 61.2 °F 95% 30.01 in 7.0 mi SE 4.6 mph - N/A   Overcast
1:35 AM 62.6 °F 61.2 °F 95% 30.00 in 7.0 mi SE 4.6 mph - N/A   Overcast
1:55 AM 63.3 °F 61.9 °F 95% 30.00 in 10.0 mi SE 6.9 mph - N/A   Overcast
2:15 AM 63.5 °F 61.7 °F 94% 29.98 in 7.0 mi SE 6.9 mph - N/A   Overcast
2:35 AM 63.3 °F 61.5 °F 94% 29.98 in 7.0 mi ESE 8.1 mph - N/A   Overcast
2:55 AM 62.6 °F 61.2 °F 95% 29.97 in 7.0 mi SE 6.9 mph - N/A   Overcast
3:15 AM 61.7 °F 60.1 °F 94% 29.97 in 7.0 mi ESE 6.9 mph - N/A   Overcast
3:35 AM 62.2 °F 60.8 °F 95% 29.96 in 7.0 mi SE 6.9 mph - N/A   Overcast
3:55 AM 62.1 °F 60.8 °F 96% 29.95 in 7.0 mi ESE 10.4 mph - N/A   Overcast
4:15 AM 62.6 °F 60.8 °F 94% 29.95 in 10.0 mi SE 9.2 mph - N/A   Overcast
4:35 AM 62.8 °F 61.2 °F 94% 29.95 in 10.0 mi SSE 9.2 mph - N/A   Overcast
4:55 AM 64.4 °F 61.9 °F 92% 29.94 in 10.0 mi SSE 9.2 mph - N/A   Overcast
5:15 AM 64.6 °F 61.9 °F 91% 29.94 in 10.0 mi SSE 11.5 mph - N/A   Overcast
5:35 AM 64.9 °F 62.1 °F 90% 29.93 in 10.0 mi SSE 11.5 mph - N/A   Overcast
5:55 AM 65.5 °F 62.1 °F 89% 29.93 in 10.0 mi SSE 11.5 mph 18.4 mph N/A   Overcast
6:15 AM 65.8 °F 62.4 °F 89% 29.93 in 10.0 mi SSE 13.8 mph - N/A   Overcast
6:35 AM 65.8 °F 62.6 °F 89% 29.94 in 10.0 mi SSE 12.7 mph - N/A   Overcast
6:55 AM 65.5 °F 62.4 °F 90% 29.94 in 10.0 mi SSE 9.2 mph - N/A   Overcast
7:15 AM 65.3 °F 62.2 °F 90% 29.94 in 10.0 mi SSE 9.2 mph - N/A   Overcast
7:35 AM 65.3 °F 62.1 °F 89% 29.94 in 10.0 mi SSE 9.2 mph - N/A   Overcast
7:55 AM 65.3 °F 62.1 °F 89% 29.94 in 10.0 mi SSE 8.1 mph - N/A   Overcast
8:15 AM 65.3 °F 62.2 °F 90% 29.95 in 10.0 mi SSE 6.9 mph - N/A   Overcast
8:35 AM 65.3 °F 62.6 °F 91% 29.95 in 10.0 mi SSE 6.9 mph - N/A   Overcast
8:55 AM 65.3 °F 62.6 °F 91% 29.96 in 10.0 mi SSE 4.6 mph - N/A   Overcast
9:15 AM 65.8 °F 63.0 °F 90% 29.96 in 10.0 mi SSE 5.8 mph - N/A   Overcast
9:35 AM 66.4 °F 63.5 °F 90% 29.96 in 7.0 mi SSE 5.8 mph - N/A   Overcast
9:55 AM 67.1 °F 63.5 °F 88% 29.96 in 10.0 mi SSE 6.9 mph - N/A   Overcast
10:15 AM 66.9 °F 63.5 °F 89% 29.96 in 5.0 mi SE 6.9 mph - N/A Rain Light Rain
10:35 AM 65.5 °F 62.6 °F 90% 29.95 in 5.0 mi SE 6.9 mph - N/A   Overcast
10:55 AM 66.4 °F 63.7 °F 91% 29.94 in 5.0 mi SE 5.8 mph - N/A   Overcast
11:15 AM 68.9 °F 64.8 °F 87% 29.92 in 7.0 mi SSE 16.1 mph - N/A   Overcast
11:35 AM 68.9 °F 64.9 °F 87% 29.91 in 10.0 mi SSE 10.4 mph 20.7 mph N/A   Overcast
11:55 AM 69.8 °F 65.1 °F 85% 29.90 in 10.0 mi SSE 11.5 mph - N/A   Overcast
12:15 PM 68.4 °F 65.3 °F 90% 29.90 in 7.0 mi South 12.7 mph - N/A   Light Drizzle
12:35 PM 68.9 °F 64.9 °F 87% 29.89 in 10.0 mi South 15.0 mph 19.6 mph N/A   Overcast
12:55 PM 68.2 °F 64.9 °F 89% 29.88 in 7.0 mi South 11.5 mph 19.6 mph N/A   Overcast
1:15 PM 68.4 °F 65.3 °F 90% 29.86 in 10.0 mi South 12.7 mph - N/A   Overcast
1:35 PM 69.1 °F 65.5 °F 88% 29.84 in 7.0 mi South 12.7 mph - N/A   Overcast
1:55 PM 68.7 °F 65.7 °F 90% 29.84 in 7.0 mi South 12.7 mph - N/A   Overcast
2:15 PM 69.4 °F 65.8 °F 88% 29.83 in 10.0 mi South 13.8 mph - N/A   Overcast
2:35 PM 70.3 °F 66.2 °F 87% 29.83 in 10.0 mi SSW 17.3 mph 21.9 mph N/A   Overcast
2:55 PM 70.3 °F 66.0 °F 86% 29.82 in 10.0 mi SSW 15.0 mph 19.6 mph N/A   Overcast
3:15 PM 70.9 °F 66.0 °F 85% 29.82 in 10.0 mi SSW 16.1 mph 21.9 mph N/A   Overcast
3:35 PM 71.8 °F 66.4 °F 83% 29.82 in 10.0 mi South 13.8 mph 19.6 mph N/A   Mostly Cloudy
3:55 PM 71.8 °F 66.4 °F 83% 29.81 in 10.0 mi South 15.0 mph 19.6 mph N/A   Scattered Clouds
4:15 PM 71.6 °F 66.2 °F 83% 29.81 in 10.0 mi South 16.1 mph - N/A   Clear
4:35 PM 70.7 °F 65.8 °F 85% 29.82 in 10.0 mi South 16.1 mph - N/A   Clear
4:55 PM 70.0 °F 65.8 °F 87% 29.82 in 10.0 mi SSW 13.8 mph - N/A   Clear
5:15 PM 69.3 °F 65.7 °F 88% 29.82 in 10.0 mi SSW 16.1 mph - N/A   Clear
5:35 PM 68.0 °F 65.1 °F 90% 29.82 in 10.0 mi South 15.0 mph 19.6 mph N/A   Clear
5:55 PM 66.9 °F 64.6 °F 92% 29.82 in 7.0 mi South 12.7 mph - N/A   Clear
6:15 PM 65.8 °F 64.0 °F 94% 29.83 in 7.0 mi South 10.4 mph - N/A   Clear
6:35 PM 65.3 °F 63.9 °F 95% 29.83 in 7.0 mi South 10.4 mph - N/A   Scattered Clouds
6:55 PM 64.8 °F 63.5 °F 96% 29.84 in 5.0 mi South 9.2 mph - N/A   Mostly Cloudy
7:15 PM 64.6 °F 63.5 °F 96% 29.84 in 5.0 mi South 8.1 mph - N/A   Overcast
7:35 PM 64.4 °F 63.1 °F 96% 29.84 in 5.0 mi SSW 8.1 mph - N/A   Overcast
7:55 PM 64.4 °F 63.5 °F 97% 29.85 in 2.0 mi South 9.2 mph - N/A   Overcast
8:15 PM 64.8 °F 63.9 °F 97% 29.86 in 1.8 mi SW 8.1 mph - N/A   Overcast
8:35 PM 64.4 °F 63.5 °F 97% 29.86 in 1.5 mi SW 8.1 mph - N/A   Overcast
8:55 PM 64.4 °F 63.5 °F 97% 29.87 in 5.0 mi SW 6.9 mph - N/A   Overcast
9:15 PM 64.2 °F 63.3 °F 97% 29.88 in 5.0 mi SW 8.1 mph - N/A   Overcast
9:35 PM 63.7 °F 62.8 °F 97% 29.88 in 4.0 mi SW 8.1 mph - N/A   Overcast
9:55 PM 63.1 °F 62.2 °F 97% 29.88 in 0.8 mi SW 6.9 mph - N/A   Overcast
10:15 PM 62.6 °F 61.7 °F 97% 29.88 in 0.5 mi SSW 5.8 mph - N/A Fog Fog
10:35 PM 62.1 °F 61.2 °F 97% 29.88 in 0.5 mi SSW 4.6 mph - N/A Fog Fog
10:55 PM 61.2 °F 60.6 °F 98% 29.88 in 0.2 mi SSW 4.6 mph - N/A Fog Fog
11:15 PM 60.8 °F 59.9 °F 97% 29.88 in 0.5 mi SSW 4.6 mph - N/A Fog Fog
11:35 PM 59.4 °F 58.8 °F 98% 29.88 in 0.2 mi South 4.6 mph - N/A Fog Fog
11:55 PM 58.6 °F 57.9 °F 97% 29.88 in 0.2 mi South 5.8 mph - N/A Fog Fog